Overview Statistics Trail Chart Weather Telemetry Raw packets
 

This is the latest recevied weather packets stored in our database for station/object WC0AA-WX. If no packets are shown the sender has not sent any weather packets the latest 10 day(s).

<< 9 10 11 12 13 14 15 >>
Time Temp. Humidity Pressure Rain* Wind** Luminosity Snow
1787881118 23.33° C 82% 1018.1 hPa 0 mm - - -
1787880518 23.33° C 77% 1018 hPa 0 mm - - -
1787879918 23.89° C 77% 1018 hPa 0 mm - - -
1787879321 24.44° C 73% 1017.9 hPa 0 mm - - -
1787878688 25° C 68% 1017.9 hPa 0 mm - - -
1787878088 25.56° C 66% 1018.1 hPa 0 mm - - -
1787877488 26.11° C 64% 1018 hPa 0 mm - - -
1787876888 26.67° C 61% 1018.3 hPa 0 mm - - -
1787876287 26.67° C 58% 1018.2 hPa 0 mm - - -
1787875687 27.22° C 55% 1018.1 hPa 0 mm - - -
1787875087 27.22° C 55% 1018.1 hPa 0 mm - - -
1787874487 27.22° C 55% 1018.1 hPa 0 mm - - -
1787873887 27.22° C 54% 1018.3 hPa 0 mm - - -
1787873287 27.78° C 54% 1018.3 hPa 0 mm - - -
1787872687 28.33° C 53% 1018.3 hPa 0 mm - - -
1787872057 28.89° C 53% 1018.3 hPa 0 mm - - -
1787871457 28.89° C 52% 1018.4 hPa 0 mm - - -
1787870857 29.44° C 50% 1018.4 hPa 0 mm - - -
1787870227 29.44° C 51% 1018.4 hPa 0 mm - - -
1787869635 30° C 50% 1018.6 hPa 0 mm - - -
1787869026 30° C 52% 1018.7 hPa 0 mm - - -
1787868426 31.11° C 47% 1018.7 hPa 0 mm - - -
1787867826 30° C 50% 1018.9 hPa 0 mm - - -
1787867226 30° C 51% 1018.9 hPa 0 mm - - -
1787866626 30° C 52% 1019.1 hPa 0 mm - - -

* Rain latest hour (hover to see other rain measurements)
** Current wind speed in m/s (hover to see current wind gust speed)